When you browse on this site, cookies collect data to enhance your experience and personalize the content and advertising you see.
Visit our Privacy Policy to learn more. By continuing to use the site, you agree to this use of cookies and data.
  • In Hungary
  • List of Countries
  • For 7 days
  • Water Temperature
  • Satellite Maps
  • Weather Map
  • News
  • Weather Widgets
  • user-avatar
    Login

    Hourly Weather Marasa

    Today, 21 May, Tuesday

    Time Temperature Precipitation Wind Pressure Humidity
    00:00 +3°C° 0 mm 3 mps 754 mmHg 79%
    01:00 +3°C° 0 mm 3 mps 754 mmHg 81%
    02:00 +2°C° 0 mm 3 mps 754 mmHg 82%
    03:00 +2°C° 0 mm 3 mps 754 mmHg 87%
    04:00 +3°C° 0 mm 3 mps 755 mmHg 83%
    05:00 +5°C° 0 mm 3 mps 755 mmHg 79%
    06:00 +6°C° 0 mm 4 mps 755 mmHg 74%
    07:00 +8°C° 0 mm 4 mps 755 mmHg 66%
    08:00 +9°C° 0 mm 5 mps 755 mmHg 57%
    09:00 +12°C° 0 mm 5 mps 755 mmHg 48%
    10:00 +12°C° 0 mm 5 mps 755 mmHg 48%
    11:00 +13°C° 0 mm 5 mps 755 mmHg 47%
    12:00 +14°C° 0 mm 5 mps 755 mmHg 46%
    13:00 +14°C° 0 mm 5 mps 755 mmHg 46%
    14:00 +14°C° 0 mm 5 mps 755 mmHg 46%
    15:00 +14°C° 0 mm 5 mps 755 mmHg 46%
    16:00 +14°C° 0 mm 4 mps 754 mmHg 51%
    17:00 +13°C° 0 mm 3 mps 754 mmHg 56%
    18:00 +14°C° 0 mm 2 mps 754 mmHg 60%
    19:00 +12°C° 0 mm 2 mps 754 mmHg 63%
    20:00 +10°C° 0 mm 2 mps 754 mmHg 65%
    21:00 +8°C° 0 mm 2 mps 754 mmHg 68%
    22:00 +8°C° 0 mm 2 mps 754 mmHg 69%
    23:00 +7°C° 0 mm 2 mps 754 mmHg 70%

    Tomorrow, 22 May, Wednesday

    Time Temperature Precipitation Wind Pressure Humidity
    00:00 +8°C° 0 mm 1 mps 754 mmHg 71%
    01:00 +7°C° 0 mm 2 mps 754 mmHg 71%
    02:00 +7°C° 0 mm 2 mps 754 mmHg 72%
    03:00 +7°C° 0 mm 2 mps 754 mmHg 72%
    04:00 +8°C° 0 mm 2 mps 754 mmHg 72%
    05:00 +9°C° 0 mm 3 mps 754 mmHg 72%
    06:00 +10°C° 0 mm 3 mps 754 mmHg 72%
    07:00 +11°C° 0 mm 3 mps 753 mmHg 70%
    08:00 +13°C° 0 mm 3 mps 753 mmHg 67%
    09:00 +14°C° 0 mm 3 mps 753 mmHg 64%
    10:00 +14°C° 0 mm 3 mps 753 mmHg 65%
    11:00 +15°C° 0 mm 4 mps 752 mmHg 65%
    12:00 +15°C° 0 mm 4 mps 752 mmHg 65%
    13:00 +14°C° 0 mm 4 mps 752 mmHg 68%
    14:00 +14°C° 0 mm 4 mps 751 mmHg 71%
    15:00 +14°C° 0 mm 3 mps 751 mmHg 74%
    16:00 +14°C° 0 mm 3 mps 751 mmHg 76%
    17:00 +13°C° 0 mm 3 mps 750 mmHg 78%
    18:00 +13°C° 0 mm 3 mps 750 mmHg 80%
    19:00 +13°C° 0.1 mm 3 mps 750 mmHg 85%
    20:00 +12°C° 0.1 mm 3 mps 750 mmHg 90%
    21:00 +11°C° 0.1 mm 3 mps 749 mmHg 95%
    22:00 +12°C° 0.3 mm 3 mps 749 mmHg 96%
    23:00 +12°C° 0.3 mm 3 mps 748 mmHg 96%

    Day after tomorrow, 23 May, Thursday

    Time Temperature Precipitation Wind Pressure Humidity
    00:00 +12°C° 0.3 mm 3 mps 748 mmHg 97%
    01:00 +12°C° 0.1 mm 4 mps 748 mmHg 96%
    02:00 +12°C° 0.1 mm 4 mps 747 mmHg 95%
    03:00 +10°C° 0.1 mm 5 mps 747 mmHg 94%
    04:00 +12°C° 0 mm 5 mps 746 mmHg 92%
    05:00 +13°C° 0 mm 6 mps 746 mmHg 89%
    06:00 +14°C° 0 mm 6 mps 746 mmHg 87%
    07:00 +15°C° 0 mm 7 mps 745 mmHg 79%
    08:00 +17°C° 0 mm 8 mps 745 mmHg 71%
    09:00 +18°C° 0 mm 8 mps 745 mmHg 63%
    10:00 +18°C° 0.1 mm 9 mps 744 mmHg 62%
    11:00 +19°C° 0.1 mm 9 mps 744 mmHg 61%
    12:00 +19°C° 0.1 mm 9 mps 744 mmHg 60%
    13:00 +18°C° 0.6 mm 8 mps 743 mmHg 66%
    14:00 +16°C° 0.6 mm 6 mps 743 mmHg 72%
    15:00 +15°C° 0.6 mm 5 mps 743 mmHg 78%
    16:00 +15°C° 0.5 mm 4 mps 743 mmHg 81%
    17:00 +15°C° 0.5 mm 4 mps 742 mmHg 84%
    18:00 +16°C° 0.5 mm 3 mps 742 mmHg 86%
    19:00 +14°C° 3 mm 3 mps 742 mmHg 90%
    20:00 +14°C° 3 mm 3 mps 743 mmHg 93%
    21:00 +13°C° 3 mm 3 mps 743 mmHg 97%
    22:00 +12°C° 1.3 mm 4 mps 743 mmHg 95%
    23:00 +10°C° 1.3 mm 5 mps 743 mmHg 92%

    24 May, Friday

    Time Temperature Precipitation Wind Pressure Humidity
    00:00 +9°C° 1.3 mm 5 mps 744 mmHg 90%
    01:00 +8°C° 0 mm 5 mps 744 mmHg 88%
    02:00 +6°C° 0 mm 5 mps 744 mmHg 87%
    03:00 +5°C° 0 mm 5 mps 745 mmHg 85%
    04:00 +5°C° 0 mm 5 mps 746 mmHg 83%
    05:00 +5°C° 0 mm 5 mps 746 mmHg 82%
    06:00 +5°C° 0 mm 5 mps 747 mmHg 80%
    07:00 +5°C° 0 mm 6 mps 747 mmHg 74%
    08:00 +7°C° 0 mm 6 mps 748 mmHg 68%
    09:00 +9°C° 0 mm 6 mps 748 mmHg 62%
    10:00 +9°C° 0 mm 6 mps 749 mmHg 61%
    11:00 +10°C° 0 mm 6 mps 749 mmHg 59%
    12:00 +10°C° 0 mm 6 mps 749 mmHg 58%
    13:00 +11°C° 0 mm 6 mps 749 mmHg 57%
    14:00 +12°C° 0 mm 5 mps 750 mmHg 56%
    15:00 +12°C° 0 mm 5 mps 750 mmHg 55%
    16:00 +10°C° 0 mm 5 mps 750 mmHg 58%
    17:00 +11°C° 0 mm 4 mps 750 mmHg 62%
    18:00 +11°C° 0 mm 3 mps 751 mmHg 66%
    19:00 +9°C° 0 mm 2 mps 751 mmHg 68%
    20:00 +8°C° 0 mm 2 mps 752 mmHg 69%
    21:00 +6°C° 0 mm 2 mps 752 mmHg 71%
    22:00 +7°C° 0 mm 1 mps 752 mmHg 71%
    23:00 +6°C° 0 mm 1 mps 753 mmHg 71%

    25 May, Saturday

    Time Temperature Precipitation Wind Pressure Humidity
    00:00 +6°C° 0 mm 1 mps 753 mmHg 71%
    01:00 +5°C° 0 mm 1 mps 753 mmHg 72%
    02:00 +5°C° 0 mm 1 mps 754 mmHg 72%
    03:00 +5°C° 0 mm 1 mps 754 mmHg 73%
    04:00 +6°C° 0 mm 1 mps 754 mmHg 70%
    05:00 +7°C° 0 mm 1 mps 755 mmHg 68%
    06:00 +8°C° 0 mm 0 mps 755 mmHg 66%
    07:00 +10°C° 0 mm 1 mps 755 mmHg 61%
    08:00 +11°C° 0 mm 1 mps 755 mmHg 56%
    09:00 +13°C° 0 mm 1 mps 755 mmHg 51%
    10:00 +14°C° 0 mm 1 mps 755 mmHg 49%
    11:00 +14°C° 0 mm 1 mps 755 mmHg 47%
    12:00 +15°C° 0 mm 1 mps 755 mmHg 44%
    13:00 +15°C° 0 mm 1 mps 755 mmHg 44%
    14:00 +16°C° 0 mm 1 mps 755 mmHg 44%
    15:00 +16°C° 0 mm 1 mps 754 mmHg 43%
    16:00 +16°C° 0 mm 1 mps 754 mmHg 49%
    17:00 +16°C° 0 mm 1 mps 754 mmHg 55%
    18:00 +15°C° 0 mm 1 mps 754 mmHg 60%
    19:00 +14°C° 0 mm 1 mps 754 mmHg 63%
    20:00 +12°C° 0 mm 2 mps 754 mmHg 66%
    21:00 +9°C° 0 mm 2 mps 754 mmHg 70%
    22:00 +9°C° 0 mm 2 mps 754 mmHg 71%
    23:00 +8°C° 0 mm 3 mps 754 mmHg 72%

    26 May, Sunday

    Time Temperature Precipitation Wind Pressure Humidity
    00:00 +8°C° 0 mm 3 mps 754 mmHg 73%
    01:00 +7°C° 0 mm 3 mps 754 mmHg 73%
    02:00 +6°C° 0 mm 4 mps 754 mmHg 72%
    03:00 +6°C° 0 mm 4 mps 754 mmHg 71%
    04:00 +7°C° 0 mm 5 mps 753 mmHg 71%
    05:00 +8°C° 0 mm 5 mps 753 mmHg 70%
    06:00 +9°C° 0 mm 6 mps 753 mmHg 69%
    07:00 +10°C° 0 mm 6 mps 752 mmHg 66%
    08:00 +12°C° 0 mm 7 mps 752 mmHg 63%
    09:00 +15°C° 0 mm 7 mps 752 mmHg 60%
    10:00 +16°C° 0 mm 7 mps 751 mmHg 59%
    11:00 +17°C° 0 mm 7 mps 751 mmHg 57%
    12:00 +18°C° 0 mm 7 mps 750 mmHg 56%
    13:00 +18°C° 0 mm 7 mps 750 mmHg 56%
    14:00 +20°C° 0 mm 7 mps 750 mmHg 56%
    15:00 +20°C° 0 mm 7 mps 749 mmHg 57%
    16:00 +18°C° 0 mm 7 mps 749 mmHg 62%
    17:00 +16°C° 0 mm 6 mps 748 mmHg 67%
    18:00 +15°C° 0 mm 5 mps 747 mmHg 72%
    19:00 +14°C° 0 mm 6 mps 747 mmHg 74%
    20:00 +14°C° 0 mm 6 mps 746 mmHg 77%
    21:00 +13°C° 0 mm 6 mps 746 mmHg 79%
    22:00 +13°C° 0.1 mm 6 mps 745 mmHg 77%
    23:00 +12°C° 0.1 mm 7 mps 744 mmHg 75%
    Show more